Dewpoint
40 40 40 40 39 39 37 36 24 31 31 21 22 19 21 21 15 15 23 22 20 20 16 15 13 19 23 28 29 23 30 24 21 23 25 25 22 21 21 18 17 19 16 14
40 39 40 40 40 39 37 31 30 33 29 15 16 20 20 18 15 17 20 18 21 21 15 14 16 19 25 27 26 26 28 29 23 23 24 25 23 23 21 21 21 17 16 15
40 40 40 40 40 40 37 32 24 26 24 24 22 22 20 18 20 18 21 19 22 15 14 15 15 16 19 23 23 32 30 30 26 20 20 25 23 23 23 21 19 18 19 18
39 41 40 40 39 40 37 31 26 28 21 21 23 24 24 21 17 17 17 15 16 14 14 13 16 14 15 15 25 29 27 25 30 27 29 24 23 23 23 22 21 19 19 20
37 40 40 40 40 40 33 26 25 29 27 26 26 23 22 21 18 16 14 15 16 17 14 14 14 14 13 13 21 23 27 21 30 30 32 31 29 30 24 24 23 22 22 21
38 40 41 41 41 40 34 34 34 28 23 24 23 23 23 17 18 17 16 16 17 15 14 15 15 15 15 15 14 16 22 25 29 26 31 30 28 30 28 25 24 24 22 22
38 40 41 41 40 40 39 36 34 26 19 23 22 25 27 24 20 18 18 18 17 17 18 18 17 17 16 16 17 20 22 24 24 24 29 21 26 29 30 28 28 26 24 24
39 40 41 40 40 40 39 39 33 28 21 22 23 26 26 25 21 18 17 18 19 19 20 17 15 18 18 22 26 29 27 24 23 24 23 28 29 28 28 28 25 28 26 26
41 42 41 41 40 39 39 39 38 32 24 21 26 26 26 23 19 18 19 21 22 22 19 17 13 11 17 18 17 23 30 27 25 23 22 19 23 29 32 32 26 30 29 27
42 41 41 41 40 39 40 39 39 34 26 27 27 24 26 25 21 21 21 21 22 21 18 16 14 15 17 12 14 17 19 20 20 23 22 23 28 29 31 26 22 28 31 28
41 40 41 41 40 39 38 38 39 35 28 26 27 29 27 26 25 22 23 24 19 20 14 16 14 15 15 14 16 20 19 18 18 17 18 14 29 26 20 23 27 28 28 30
40 40 40 40 38 39 39 36 39 40 33 28 31 30 31 31 30 28 29 24 25 25 18 15 17 14 15 16 13 18 19 21 19 22 21 22 27 24 26 23 25 25 26 29
40 39 38 39 38 38 40 37 38 36 31 27 29 27 31 33 33 33 28 26 26 25 24 24 21 17 21 12 14 20 11 13 17 16 15 16 21 16 16 20 22 24 26 26
40 39 38 38 38 39 39 36 38 33 31 24 23 29 25 28 30 33 33 30 29 30 29 25 21 18 19 17 20 9 6 8 6 11 12 8 23 12 12 15 19 19 23 25
40 39 38 37 38 40 38 37 36 35 30 23 23 25 27 28 31 31 31 31 30 29 27 25 20 22 20 20 11 4 9 7 4 4 6 9 9 9 11 14 18 18 21 23
40 39 37 36 38 40 33 28 37 36 35 27 20 23 22 29 30 31 31 29 29 30 28 25 27 25 24 16 6 8 7 9 10 7 10 12 11 11 14 13 14 18 23 24
39 38 37 36 40 38 31 28 36 38 38 27 20 18 19 29 29 28 27 31 28 29 28 25 18 13 13 6 1 6 7 7 8 8 9 6 9 9 11 14 17 23 22 22
38 36 36 38 38 38 36 37 36 38 34 28 19 17 18 25 20 18 25 27 29 24 20 18 13 9 9 3 5 6 7 8 7 8 10 10 10 11 15 17 20 20 18 18
35 35 35 34 31 27 29 35 37 37 32 24 22 17 16 18 15 18 20 25 20 21 14 13 7 4 2 6 7 7 8 7 8 9 7 7 8 10 12 13 16 15 15 16
34 31 27 23 29 35 35 29 31 27 27 21 18 14 12 14 14 16 16 18 20 11 15 14 5 5 9 11 11 10 10 10 10 6 5 7 7 10 11 11 13 14 14 15
28 25 25 30 32 25 16 16 15 13 15 16 16 14 10 12 13 14 18 20 15 9 10 7 2 2 6 10 10 10 11 10 10 10 11 11 11 11 10 10 12 13 14 13
29 30 33 26 15 11 6 6 7 10 10 13 11 11 12 11 18 17 18 14 11 7 9 0 -0 5 9 9 10 10 11 10 10 11 10 11 11 11 11 11 11 12 13 13
30 25 22 14 13 11 11 10 8 9 12 9 8 7 8 10 16 16 12 8 8 8 3 1 3 7 8 10 10 10 11 11 10 10 11 10 10 11 11 11 12 13 13 14
19 18 14 12 13 14 14 13 13 12 11 7 6 7 9 10 12 10 8 9 0 -3 -3 -1 4 8 9 10 10 10 9 10 10 10 10 9 9 9 10 11 12 12 11 13
17 15 14 15 18 16 15 11 6 8 5 6 5 6 7 7 5 1 1 -2 -2 -1 -1 3 7 9 9 9 9 9 9 9 9 10 9 9 9 9 9 10 10 11 12 12
16 15 15 14 15 12 9 5 3 5 6 6 6 4 5 5 1 -0 -1 -2 -3 0 3 7 9 9 8 9 9 10 10 10 9 9 10 10 10 9 9 9 9 9 10 9
15 15 16 15 13 11 7 5 5 7 7 7 5 2 3 2 -1 -2 0 -2 1 3 5 8 9 9 9 10 10 11 11 10 9 8 9 9 10 11 10 8 9 9 9 9
Wind_Speed
31 33 35 35 35 35 21 6 9 6 12 5 1 3 4 7 11 8 4 6 9 7 17 9 11 6 7 15 19 18 12 14 16 14 4 5 25 18 26 19 22 15 14 20
29 31 34 35 34 32 20 13 6 8 3 6 9 6 5 6 10 9 5 5 2 8 10 9 14 9 8 5 15 8 12 12 16 8 1 3 10 18 23 10 5 24 18 8
30 31 33 34 34 30 11 5 7 7 3 2 5 8 10 5 8 11 6 8 7 8 17 9 16 19 13 17 17 19 20 12 22 24 35 17 15 21 19 25 21 20 19 9
30 31 33 33 32 30 5 5 5 4 9 18 12 11 7 13 8 5 4 6 8 15 13 20 7 26 30 21 8 10 15 9 18 10 11 11 8 20 27 23 36 27 30 16
31 31 32 33 31 28 3 3 5 6 20 12 12 17 3 9 11 4 14 4 21 19 14 20 30 24 28 15 3 14 8 9 7 17 3 10 10 10 11 25 31 13 13 8
31 31 31 32 30 23 4 4 3 5 12 7 13 5 5 8 10 9 10 16 15 23 24 22 32 30 36 26 29 23 11 11 5 13 11 8 7 21 13 6 8 21 26 28
31 31 32 32 30 23 11 3 2 4 14 9 16 15 14 18 20 16 21 13 13 12 21 27 28 25 29 22 22 17 11 9 9 4 14 16 4 9 19 18 11 18 20 27
32 32 33 33 31 26 17 2 2 2 13 18 21 15 12 16 15 18 18 20 9 18 16 9 12 8 5 3 2 3 24 7 8 2 11 2 5 14 9 3 7 31 23 20
32 32 33 34 31 26 12 7 6 3 6 5 12 21 12 15 14 10 7 13 13 9 5 5 5 4 8 8 15 10 2 21 9 6 3 5 14 25 21 5 5 34 30 27
33 33 33 34 31 29 18 6 8 4 6 9 4 13 10 7 5 8 10 11 13 6 8 5 7 7 9 11 11 10 9 3 8 7 4 6 29 30 13 6 12 31 23 24
34 34 33 33 31 29 19 9 11 5 5 14 9 8 9 13 7 8 10 11 3 5 9 5 5 4 4 7 7 9 9 10 9 7 6 7 25 12 12 15 17 24 25 24
33 34 33 33 33 27 20 4 5 7 7 14 17 24 25 21 20 16 4 6 7 3 3 2 2 5 4 5 8 10 7 8 5 8 7 14 12 17 10 20 19 26 28 27
34 34 35 33 30 24 16 4 1 3 4 9 5 7 5 6 13 14 5 4 4 4 3 2 3 5 1 5 4 7 19 27 7 12 13 31 7 18 28 25 24 28 27 28
36 35 35 33 26 22 9 2 2 2 3 5 9 5 9 12 8 11 18 12 3 4 1 5 6 3 2 3 6 8 12 11 17 8 16 29 7 32 29 36 29 29 29 27
36 37 35 28 19 18 5 3 2 4 2 5 11 19 3 7 11 11 12 16 11 7 5 6 6 3 3 4 9 12 14 12 10 8 27 15 30 32 39 35 27 31 29 29
38 35 34 21 17 12 3 1 1 2 2 2 6 6 6 9 17 10 11 13 8 5 3 2 2 6 7 6 5 7 20 16 16 17 23 25 32 35 24 28 34 30 24 20
37 36 26 17 11 3 1 2 3 9 4 2 6 12 5 9 6 8 11 3 5 5 2 4 8 13 10 6 8 24 21 17 18 18 21 16 11 25 34 32 31 20 11 8
40 33 21 8 5 6 0 1 13 11 1 2 2 8 8 9 8 9 6 5 2 10 5 5 6 6 8 5 21 23 23 23 14 17 19 22 24 25 21 19 15 9 5 4
37 23 9 3 4 4 4 17 9 3 2 3 1 8 8 11 7 5 6 5 5 5 6 5 5 8 11 13 24 24 24 19 24 26 19 17 17 17 16 15 12 5 5 7
22 7 4 2 2 13 8 2 1 4 5 6 5 7 6 10 7 5 9 4 4 4 6 4 6 5 2 12 16 16 20 20 20 21 25 24 23 21 19 17 13 10 9 8
8 10 5 8 10 3 4 2 4 6 4 8 6 5 12 6 5 6 4 5 4 4 5 4 3 5 16 17 17 17 18 18 17 16 16 17 16 16 16 17 16 14 14 14
8 12 8 6 8 4 4 4 4 6 4 8 6 8 5 7 4 5 7 3 4 4 2 4 3 6 15 17 18 18 17 19 19 18 17 17 17 17 16 14 16 15 15 15
3 2 3 6 7 9 6 9 4 9 10 8 10 14 5 6 3 4 6 4 3 1 5 2 1 9 13 15 15 17 17 18 18 18 18 17 17 18 17 16 15 16 16 13
4 5 7 6 6 4 3 4 6 5 5 16 13 5 3 4 5 4 3 3 4 3 3 1 7 13 14 14 13 13 15 15 15 16 16 16 16 16 17 17 16 16 17 17
4 4 4 5 2 3 1 1 6 3 6 12 7 5 2 3 2 4 2 4 3 2 1 3 10 12 12 13 13 13 12 13 12 11 13 14 14 15 16 17 16 16 18 16
4 6 2 5 1 5 6 5 6 3 13 4 1 2 1 4 3 3 3 1 1 1 6 9 11 12 12 12 12 12 11 11 10 10 10 11 12 13 12 15 16 16 15 14
3 2 3 2 1 2 5 5 6 7 7 4 2 3 2 3 3 4 4 3 4 11 11 10 11 10 12 11 9 9 9 10 10 10 12 11 10 10 12 15 12 11 12 12
Wind_Direction
349 351 350 348 350 349 352 320 327 301 358 350 15 267 263 293 308 328 323 302 340 349 329 292 283 268 228 348 339 318 281 244 221 201 242 272 221 204 193 202 217 231 233 240
347 349 349 347 348 353 337 324 284 314 44 314 313 297 270 263 301 309 323 302 4 297 320 322 308 315 329 324 337 305 344 234 224 202 197 346 200 206 208 189 122 213 217 251
343 349 348 348 349 351 358 322 316 314 5 325 302 303 291 289 288 290 261 280 284 324 313 297 286 285 309 307 295 299 320 231 204 203 210 178 195 194 199 204 219 221 224 225
345 346 346 344 347 352 7 14 291 288 292 322 303 293 267 296 294 267 291 300 298 310 306 311 244 315 310 306 279 337 3 277 190 188 142 156 178 192 198 202 220 219 236 226
342 342 342 341 343 350 337 352 333 315 289 298 282 290 259 277 286 268 307 255 310 305 293 287 292 307 300 292 295 346 348 291 190 194 203 136 142 134 176 213 230 231 243 256
341 339 335 338 341 351 288 264 228 292 295 290 305 284 267 288 326 299 273 296 306 306 300 301 289 277 274 264 275 291 305 297 337 203 170 132 242 207 182 168 211 219 231 241
339 334 333 336 337 342 326 250 262 306 299 297 305 289 289 295 301 291 294 303 305 280 310 303 289 273 262 265 255 224 243 270 278 104 148 201 238 195 195 192 229 224 222 240
334 331 330 332 333 334 337 241 210 269 299 300 300 308 296 300 298 293 282 297 273 303 312 311 326 334 8 355 119 213 209 242 271 107 194 326 26 17 344 285 88 27 2 302
329 330 331 332 331 336 330 268 190 191 294 288 307 303 292 303 309 314 282 303 309 323 297 323 310 334 333 349 349 351 340 217 290 359 282 172 352 331 318 264 234 1 355 348
333 332 333 332 331 332 331 286 188 219 243 268 302 303 306 294 308 291 307 328 330 4 338 328 4 3 340 349 329 330 335 359 23 260 209 77 350 345 334 112 328 329 335 341
332 333 333 332 333 336 327 289 195 203 245 286 270 269 266 298 277 289 306 325 357 337 13 17 338 348 329 309 301 348 4 359 4 4 14 32 5 18 48 325 317 331 340 345
329 330 336 337 335 331 329 285 202 202 260 277 289 277 266 253 257 270 261 271 307 280 324 16 323 298 293 318 329 339 28 11 300 4 13 12 28 64 27 358 336 339 337 337
329 329 336 337 334 328 331 283 201 223 275 297 299 283 311 252 237 219 254 236 245 252 210 248 232 243 345 308 288 345 353 16 21 331 13 350 331 5 1 349 338 332 328 327
328 331 335 336 332 330 342 274 169 104 279 287 280 346 326 312 313 216 212 243 250 285 259 263 234 244 239 280 28 63 351 339 328 290 5 348 202 342 334 327 325 326 325 329
327 330 335 336 334 339 49 74 73 132 106 290 291 312 284 316 341 309 237 236 242 265 259 222 228 248 283 70 83 47 358 352 354 296 324 303 297 312 313 311 317 320 317 324
328 332 333 338 333 335 67 35 292 191 196 324 308 307 294 328 332 318 282 250 225 223 255 254 224 47 356 64 68 41 358 337 316 290 303 297 289 289 301 313 308 306 314 319
328 332 333 335 331 24 331 170 27 10 203 24 307 315 295 328 320 318 297 311 214 225 244 33 37 17 43 65 10 327 333 326 310 303 319 312 307 303 303 297 294 300 320 349
328 332 330 346 56 109 360 275 343 328 10 81 310 283 326 11 322 325 356 319 305 33 61 49 36 26 41 59 339 330 332 329 312 320 311 290 292 295 305 313 313 312 332 28
327 325 328 83 51 21 282 306 330 85 50 336 336 354 318 357 337 305 312 328 62 37 53 45 71 26 40 327 331 333 334 331 318 321 322 320 321 326 336 349 359 15 37 72
325 341 12 20 9 305 305 30 133 36 8 22 59 349 312 351 336 304 336 341 57 68 48 83 73 101 278 339 331 326 329 330 329 340 347 349 349 353 356 8 18 33 53 72
1 357 340 305 331 22 37 61 46 344 42 11 359 38 337 335 319 299 303 343 26 69 2 90 68 21 352 340 340 340 338 338 340 343 341 349 354 359 6 16 22 31 47 58
292 294 302 331 15 21 53 21 348 29 346 354 356 326 297 297 307 286 356 22 43 60 12 71 69 344 341 339 339 341 342 349 352 357 356 358 9 17 22 23 29 38 50 63
38 40 349 357 352 25 38 351 346 338 353 10 345 329 318 318 313 301 2 34 46 16 48 70 104 329 341 342 335 345 349 355 359 359 3 10 14 20 31 35 33 46 49 54
40 10 17 29 23 39 53 345 297 300 331 340 329 287 302 315 333 341 11 345 44 75 76 356 340 340 334 336 336 344 348 351 354 1 3 12 19 26 28 33 37 52 51 49
49 35 45 39 5 55 57 320 319 347 337 329 312 297 265 315 348 24 346 29 55 45 67 336 322 339 335 339 343 344 347 351 357 1 11 17 18 29 34 32 39 45 51 49
65 52 70 356 4 337 338 318 310 326 329 305 222 322 352 36 18 46 31 53 51 358 330 313 324 336 337 340 349 353 354 357 2 9 13 19 25 31 39 42 40 42 50 53
67 100 69 14 108 279 309 327 310 325 343 349 345 22 0 305 49 43 17 28 327 318 313 315 318 327 336 337 340 347 359 14 21 26 29 26 22 31 43 48 40 44 46 50